Location: Red Bud (historical)
(37.7759°N, 88.4053°W)
Time: 00:01:13
(UTC+00:00)

Cosmos 1340 - Pass Details

Date: 29 October 2020
Orbit: 501 x 504 km, 81.2° (Epoch: 28 November)

Event Time Altitude Azimuth Distance (km) Brightness Sun altitude
Rises 23:41:51 0° 355° (N) 2,612 6.2 -9.3°
Reaches altitude 10° 23:44:01 10° 359° (N) 1,723 5.3 -9.7°
Maximum altitude 23:47:44 59° 79° (E) 590 2.6 -10.5°
Drops below altitude 10° 23:51:27 10° 160° (SSE) 1,710 5.2 -11.2°
Sets 23:53:35 0° 164° (SSE) 2,590 6.2 -11.6°
